owner,sensor,date,latitude,longitude,vertical_datum,sea_water_practical_salinity,qcFlag 
SCCF RECON,ioos:station:SCCF:13:1,2015-11-01T00:00:00Z,26.5255,-82.0032,2.75,30.96,1111122 
SCCF RECON,ioos:station:SCCF:13:1,2015-11-01T01:00:00Z,26.5255,-82.0032,2.73,31.21,1111122 
SCCF RECON,ioos:station:SCCF:13:1,2015-11-01T02:00:00Z,26.5255,-82.0032,2.7,31.15,1111122 
SCCF RECON,ioos:station:SCCF:13:1,2015-11-01T03:00:00Z,26.5255,-82.0032,2.697,30.55,1111122 
SCCF RECON,ioos:station:SCCF:13:1,2015-11-01T04:00:00Z,26.5255,-82.0032,2.74,28.65,1111122 
SCCF RECON,ioos:station:SCCF:13:1,2015-11-01T05:00:00Z,26.5255,-82.0032,2.81,29.35,1111122 
SCCF RECON,ioos:station:SCCF:13:1,2015-11-01T06:00:00Z,26.5255,-82.0032,2.86,30.18,1111122 
SCCF RECON,ioos:station:SCCF:13:1,2015-11-01T07:00:00Z,26.5255,-82.0032,2.9,30.22,1111122 
SCCF RECON,ioos:station:SCCF:13:1,2015-11-01T08:00:00Z,26.5255,-82.0032,2.923,31.14,1111122 
SCCF RECON,ioos:station:SCCF:13:1,2015-11-01T09:00:00Z,26.5255,-82.0032,2.937,32.02,1111122 
SCCF RECON,ioos:station:SCCF:13:1,2015-11-01T10:00:00Z,26.5255,-82.0032,2.906,32.28,1111122 
SCCF RECON,ioos:station:SCCF:13:1,2015-11-01T11:00:00Z,26.5255,-82.0032,2.83,32.46,1111122 
SCCF RECON,ioos:station:SCCF:13:1,2015-11-01T12:00:00Z,26.5255,-82.0032,2.721,30.62,1111122 
SCCF RECON,ioos:station:SCCF:13:1,2015-11-01T13:00:00Z,26.5255,-82.0032,2.63,26.17,1111122 
SCCF RECON,ioos:station:SCCF:13:1,2015-11-01T14:00:00Z,26.5255,-82.0032,2.531,26.09,1111122 
SCCF RECON,ioos:station:SCCF:13:1,2015-11-01T15:00:00Z,26.5255,-82.0032,2.43,24.4,1111122 
SCCF RECON,ioos:station:SCCF:13:1,2015-11-01T16:00:00Z,26.5255,-82.0032,2.36,22.96,1111122 
SCCF RECON,ioos:station:SCCF:13:1,2015-11-01T17:00:00Z,26.5255,-82.0032,2.369,22.07,1111122 
SCCF RECON,ioos:station:SCCF:13:1,2015-11-01T18:00:00Z,26.5255,-82.0032,2.47,21.57,1111122 
SCCF RECON,ioos:station:SCCF:13:1,2015-11-01T19:00:00Z,26.5255,-82.0032,2.569,21.36,1111122 
SCCF RECON,ioos:station:SCCF:13:1,2015-11-01T20:00:00Z,26.5255,-82.0032,2.619,23.25,1111122 
SCCF RECON,ioos:station:SCCF:13:1,2015-11-01T21:00:00Z,26.5255,-82.0032,2.675,24.53,1111122 
SCCF RECON,ioos:station:SCCF:13:1,2015-11-01T22:00:00Z,26.5255,-82.0032,2.733,27.5,1111122 
SCCF RECON,ioos:station:SCCF:13:1,2015-11-01T23:00:00Z,26.5255,-82.0032,2.77,30.31,1111122 
SCCF RECON,ioos:station:SCCF:13:1,2015-11-02T00:00:00Z,26.5255,-82.0032,2.77,31.09,1111122 
SCCF RECON,ioos:station:SCCF:13:1,2015-11-02T01:00:00Z,26.5255,-82.0032,2.73,31.18,1111122 
SCCF RECON,ioos:station:SCCF:13:1,2015-11-02T02:00:00Z,26.5255,-82.0032,2.7,31.22,1111122 
SCCF RECON,ioos:station:SCCF:13:1,2015-11-02T03:00:00Z,26.5255,-82.0032,2.7,31.01,1111122 
SCCF RECON,ioos:station:SCCF:13:1,2015-11-02T04:00:00Z,26.5255,-82.0032,2.69,30.16,1111122 
SCCF RECON,ioos:station:SCCF:13:1,2015-11-02T05:00:00Z,26.5255,-82.0032,2.7,28.23,1111122 
SCCF RECON,ioos:station:SCCF:13:1,2015-11-02T06:00:00Z,26.5255,-82.0032,2.753,29.65,1111122 
SCCF RECON,ioos:station:SCCF:13:1,2015-11-02T07:00:00Z,26.5255,-82.0032,2.78,29.43,1111122 
SCCF RECON,ioos:station:SCCF:13:1,2015-11-02T08:00:00Z,26.5255,-82.0032,2.82,30.14,1111122 
SCCF RECON,ioos:station:SCCF:13:1,2015-11-02T09:00:00Z,26.5255,-82.0032,2.85,30.8,1111122 
SCCF RECON,ioos:station:SCCF:13:1,2015-11-02T10:00:00Z,26.5255,-82.0032,2.87,31.21,1111122 
SCCF RECON,ioos:station:SCCF:13:1,2015-11-02T11:00:00Z,26.5255,-82.0032,2.87,31.88,1111122 
SCCF RECON,ioos:station:SCCF:13:1,2015-11-02T12:00:00Z,26.5255,-82.0032,2.8,32.03,1111122 
SCCF RECON,ioos:station:SCCF:13:1,2015-11-02T13:00:00Z,26.5255,-82.0032,2.688,30.3,1111122 
SCCF RECON,ioos:station:SCCF:13:1,2015-11-02T14:00:00Z,26.5255,-82.0032,2.6,26.09,1111122 
SCCF RECON,ioos:station:SCCF:13:1,2015-11-02T15:00:00Z,26.5255,-82.0032,2.516,25.13,1111122 
SCCF RECON,ioos:station:SCCF:13:1,2015-11-02T16:00:00Z,26.5255,-82.0032,2.43,23.79,1111122 
SCCF RECON,ioos:station:SCCF:13:1,2015-11-02T17:00:00Z,26.5255,-82.0032,2.366,22.73,1111122 
SCCF RECON,ioos:station:SCCF:13:1,2015-11-02T18:00:00Z,26.5255,-82.0032,2.377,22.33,1111122 
SCCF RECON,ioos:station:SCCF:13:1,2015-11-02T19:00:00Z,26.5255,-82.0032,2.479,22.36,1111122 
SCCF RECON,ioos:station:SCCF:13:1,2015-11-02T20:00:00Z,26.5255,-82.0032,2.559,22.68,1111122 
SCCF RECON,ioos:station:SCCF:13:1,2015-11-02T21:00:00Z,26.5255,-82.0032,2.59,23.51,1111122 
SCCF RECON,ioos:station:SCCF:13:1,2015-11-02T22:00:00Z,26.5255,-82.0032,2.63,24.24,1111122 
SCCF RECON,ioos:station:SCCF:13:1,2015-11-02T23:00:00Z,26.5255,-82.0032,2.67,27.09,1111122 
SCCF RECON,ioos:station:SCCF:13:1,2015-11-03T00:00:00Z,26.5255,-82.0032,2.7,28.24,1111122 
SCCF RECON,ioos:station:SCCF:13:1,2015-11-03T01:00:00Z,26.5255,-82.0032,2.71,30.15,1111122 
SCCF RECON,ioos:station:SCCF:13:1,2015-11-03T02:00:00Z,26.5255,-82.0032,2.7,29.81,1111122 
SCCF RECON,ioos:station:SCCF:13:1,2015-11-03T03:00:00Z,26.5255,-82.0032,2.68,30.84,1111122 
SCCF RECON,ioos:station:SCCF:13:1,2015-11-03T04:00:00Z,26.5255,-82.0032,2.65,30.4,1111122 
SCCF RECON,ioos:station:SCCF:13:1,2015-11-03T05:00:00Z,26.5255,-82.0032,2.61,29.7,1111122 
SCCF RECON,ioos:station:SCCF:13:1,2015-11-03T06:00:00Z,26.5255,-82.0032,2.605,26.4,1111122 
SCCF RECON,ioos:station:SCCF:13:1,2015-11-03T07:00:00Z,26.5255,-82.0032,2.63,25.16,1111122 
SCCF RECON,ioos:station:SCCF:13:1,2015-11-03T08:00:00Z,26.5255,-82.0032,2.689,29.79,1111122 
SCCF RECON,ioos:station:SCCF:13:1,2015-11-03T09:00:00Z,26.5255,-82.0032,2.71,28.34,1111122 
SCCF RECON,ioos:station:SCCF:13:1,2015-11-03T10:00:00Z,26.5255,-82.0032,2.734,27.74,1111122 
SCCF RECON,ioos:station:SCCF:13:1,2015-11-03T11:00:00Z,26.5255,-82.0032,2.75,28.99,1111122 
SCCF RECON,ioos:station:SCCF:13:1,2015-11-03T12:00:00Z,26.5255,-82.0032,2.78,30.81,1111122 
SCCF RECON,ioos:station:SCCF:13:1,2015-11-03T13:00:00Z,26.5255,-82.0032,2.76,31.37,1111122 
SCCF RECON,ioos:station:SCCF:13:1,2015-11-03T14:00:00Z,26.5255,-82.0032,2.68,31.13,1111122 
SCCF RECON,ioos:station:SCCF:13:1,2015-11-03T15:00:00Z,26.5255,-82.0032,2.582,27.81,1111122 
SCCF RECON,ioos:station:SCCF:13:1,2015-11-03T16:00:00Z,26.5255,-82.0032,2.515,23.29,1111122 
SCCF RECON,ioos:station:SCCF:13:1,2015-11-03T17:00:00Z,26.5255,-82.0032,2.443,22.71,1111122 
SCCF RECON,ioos:station:SCCF:13:1,2015-11-03T18:00:00Z,26.5255,-82.0032,2.38,21.26,1111122 
SCCF RECON,ioos:station:SCCF:13:1,2015-11-03T19:00:00Z,26.5255,-82.0032,2.38,20.64,1111122 
SCCF RECON,ioos:station:SCCF:13:1,2015-11-03T20:00:00Z,26.5255,-82.0032,2.45,20.52,1111122 
SCCF RECON,ioos:station:SCCF:13:1,2015-11-03T21:00:00Z,26.5255,-82.0032,2.549,20.46,1111122 
SCCF RECON,ioos:station:SCCF:13:1,2015-11-03T22:00:00Z,26.5255,-82.0032,2.6,22.8,1111122 
SCCF RECON,ioos:station:SCCF:13:1,2015-11-03T23:00:00Z,26.5255,-82.0032,2.63,24.85,1111122 
SCCF RECON,ioos:station:SCCF:13:1,2015-11-04T00:00:00Z,26.5255,-82.0032,2.673,27.29,1111122 
SCCF RECON,ioos:station:SCCF:13:1,2015-11-04T01:00:00Z,26.5255,-82.0032,2.72,29.17,1111122 
SCCF RECON,ioos:station:SCCF:13:1,2015-11-04T02:00:00Z,26.5255,-82.0032,2.75,30.08,1111122 
SCCF RECON,ioos:station:SCCF:13:1,2015-11-04T03:00:00Z,26.5255,-82.0032,2.74,30.93,1111122 
SCCF RECON,ioos:station:SCCF:13:1,2015-11-04T04:00:00Z,26.5255,-82.0032,2.71,31.37,1111122 
SCCF RECON,ioos:station:SCCF:13:1,2015-11-04T05:00:00Z,26.5255,-82.0032,2.63,30.97,1111122 
SCCF RECON,ioos:station:SCCF:13:1,2015-11-04T06:00:00Z,26.5255,-82.0032,2.57,27.72,1111122 
SCCF RECON,ioos:station:SCCF:13:1,2015-11-04T07:00:00Z,26.5255,-82.0032,2.54,23.78,1111122 
SCCF RECON,ioos:station:SCCF:13:1,2015-11-04T08:00:00Z,26.5255,-82.0032,2.551,22.27,1111122 
SCCF RECON,ioos:station:SCCF:13:1,2015-11-04T09:00:00Z,26.5255,-82.0032,2.61,22.59,1111122 
SCCF RECON,ioos:station:SCCF:13:1,2015-11-04T10:00:00Z,26.5255,-82.0032,2.66,26.0,1111122 
SCCF RECON,ioos:station:SCCF:13:1,2015-11-04T11:00:00Z,26.5255,-82.0032,2.691,27.2,1111122 
SCCF RECON,ioos:station:SCCF:13:1,2015-11-04T12:00:00Z,26.5255,-82.0032,2.711,28.42,1111122 
SCCF RECON,ioos:station:SCCF:13:1,2015-11-04T13:00:00Z,26.5255,-82.0032,2.73,30.09,1111122 
SCCF RECON,ioos:station:SCCF:13:1,2015-11-04T14:00:00Z,26.5255,-82.0032,2.72,30.47,1111122 
SCCF RECON,ioos:station:SCCF:13:1,2015-11-04T15:00:00Z,26.5255,-82.0032,2.675,31.01,1111122 
SCCF RECON,ioos:station:SCCF:13:1,2015-11-04T16:00:00Z,26.5255,-82.0032,2.581,30.1,1111122 
SCCF RECON,ioos:station:SCCF:13:1,2015-11-04T17:00:00Z,26.5255,-82.0032,2.499,23.23,1111122 
SCCF RECON,ioos:station:SCCF:13:1,2015-11-04T18:00:00Z,26.5255,-82.0032,2.44,21.86,1111122 
SCCF RECON,ioos:station:SCCF:13:1,2015-11-04T19:00:00Z,26.5255,-82.0032,2.38,21.09,1111122 
SCCF RECON,ioos:station:SCCF:13:1,2015-11-04T20:00:00Z,26.5255,-82.0032,2.36,20.33,1111122 
SCCF RECON,ioos:station:SCCF:13:1,2015-11-04T21:00:00Z,26.5255,-82.0032,2.42,19.67,1111122 
SCCF RECON,ioos:station:SCCF:13:1,2015-11-04T22:00:00Z,26.5255,-82.0032,2.52,19.7,1111122 
SCCF RECON,ioos:station:SCCF:13:1,2015-11-04T23:00:00Z,26.5255,-82.0032,2.58,22.53,1111122 
SCCF RECON,ioos:station:SCCF:13:1,2015-11-05T00:00:00Z,26.5255,-82.0032,2.649,24.55,1111122 
SCCF RECON,ioos:station:SCCF:13:1,2015-11-05T01:00:00Z,26.5255,-82.0032,2.704,27.48,1111122 
SCCF RECON,ioos:station:SCCF:13:1,2015-11-05T02:00:00Z,26.5255,-82.0032,2.74,29.05,1111122 
SCCF RECON,ioos:station:SCCF:13:1,2015-11-05T03:00:00Z,26.5255,-82.0032,2.76,30.85,1111122 
SCCF RECON,ioos:station:SCCF:13:1,2015-11-05T04:00:00Z,26.5255,-82.0032,2.73,31.29,1111122 
SCCF RECON,ioos:station:SCCF:13:1,2015-11-05T05:00:00Z,26.5255,-82.0032,2.66,31.66,1111122 
SCCF RECON,ioos:station:SCCF:13:1,2015-11-05T06:00:00Z,26.5255,-82.0032,2.57,31.09,1111122 
SCCF RECON,ioos:station:SCCF:13:1,2015-11-05T07:00:00Z,26.5255,-82.0032,2.5,24.72,1111122 
SCCF RECON,ioos:station:SCCF:13:1,2015-11-05T08:00:00Z,26.5255,-82.0032,2.469,22.67,1111122 
SCCF RECON,ioos:station:SCCF:13:1,2015-11-05T09:00:00Z,26.5255,-82.0032,2.47,22.02,1111122 
SCCF RECON,ioos:station:SCCF:13:1,2015-11-05T10:00:00Z,26.5255,-82.0032,2.53,20.45,1111122 
SCCF RECON,ioos:station:SCCF:13:1,2015-11-05T11:00:00Z,26.5255,-82.0032,2.601,21.68,1111122 
SCCF RECON,ioos:station:SCCF:13:1,2015-11-05T12:00:00Z,26.5255,-82.0032,2.65,25.79,1111122 
SCCF RECON,ioos:station:SCCF:13:1,2015-11-05T13:00:00Z,26.5255,-82.0032,2.66,28.06,1111122 
SCCF RECON,ioos:station:SCCF:13:1,2015-11-05T14:00:00Z,26.5255,-82.0032,2.687,29.28,1111122 
SCCF RECON,ioos:station:SCCF:13:1,2015-11-05T15:00:00Z,26.5255,-82.0032,2.671,29.82,1111122 
SCCF RECON,ioos:station:SCCF:13:1,2015-11-05T16:00:00Z,26.5255,-82.0032,2.62,30.1,1111122 
SCCF RECON,ioos:station:SCCF:13:1,2015-11-05T17:00:00Z,26.5255,-82.0032,2.539,28.32,1111122 
SCCF RECON,ioos:station:SCCF:13:1,2015-11-05T18:00:00Z,26.5255,-82.0032,2.45,23.28,1111122 
SCCF RECON,ioos:station:SCCF:13:1,2015-11-05T19:00:00Z,26.5255,-82.0032,2.4,20.72,1111122 
SCCF RECON,ioos:station:SCCF:13:1,2015-11-05T20:00:00Z,26.5255,-82.0032,2.368,20.57,1111122 
SCCF RECON,ioos:station:SCCF:13:1,2015-11-05T21:00:00Z,26.5255,-82.0032,2.389,20.43,1111122 
SCCF RECON,ioos:station:SCCF:13:1,2015-11-05T22:00:00Z,26.5255,-82.0032,2.484,20.05,1111122 
SCCF RECON,ioos:station:SCCF:13:1,2015-11-05T23:00:00Z,26.5255,-82.0032,2.562,23.19,1111122 
SCCF RECON,ioos:station:SCCF:13:1,2015-11-06T00:00:00Z,26.5255,-82.0032,2.63,25.58,1111122 
SCCF RECON,ioos:station:SCCF:13:1,2015-11-06T01:00:00Z,26.5255,-82.0032,2.677,29.33,1111122 
SCCF RECON,ioos:station:SCCF:13:1,2015-11-06T02:00:00Z,26.5255,-82.0032,2.714,31.67,1111122 
SCCF RECON,ioos:station:SCCF:13:1,2015-11-06T03:00:00Z,26.5255,-82.0032,2.74,32.37,1111122 
SCCF RECON,ioos:station:SCCF:13:1,2015-11-06T04:00:00Z,26.5255,-82.0032,2.72,32.45,1111122 
SCCF RECON,ioos:station:SCCF:13:1,2015-11-06T05:00:00Z,26.5255,-82.0032,2.652,32.5,1111122 
SCCF RECON,ioos:station:SCCF:13:1,2015-11-06T06:00:00Z,26.5255,-82.0032,2.557,32.53,1111122 
SCCF RECON,ioos:station:SCCF:13:1,2015-11-06T07:00:00Z,26.5255,-82.0032,2.46,27.47,1111122 
SCCF RECON,ioos:station:SCCF:13:1,2015-11-06T08:00:00Z,26.5255,-82.0032,2.41,23.26,1111122 
SCCF RECON,ioos:station:SCCF:13:1,2015-11-06T09:00:00Z,26.5255,-82.0032,2.39,22.72,1111122 
SCCF RECON,ioos:station:SCCF:13:1,2015-11-06T10:00:00Z,26.5255,-82.0032,2.42,20.89,1111122 
SCCF RECON,ioos:station:SCCF:13:1,2015-11-06T11:00:00Z,26.5255,-82.0032,2.53,20.48,1111122 
SCCF RECON,ioos:station:SCCF:13:1,2015-11-06T12:00:00Z,26.5255,-82.0032,2.62,25.66,1111122 
SCCF RECON,ioos:station:SCCF:13:1,2015-11-06T13:00:00Z,26.5255,-82.0032,2.67,27.51,1111122 
SCCF RECON,ioos:station:SCCF:13:1,2015-11-06T14:00:00Z,26.5255,-82.0032,2.698,29.47,1111122 
SCCF RECON,ioos:station:SCCF:13:1,2015-11-06T15:00:00Z,26.5255,-82.0032,2.72,30.84,1111122 
SCCF RECON,ioos:station:SCCF:13:1,2015-11-06T16:00:00Z,26.5255,-82.0032,2.72,31.73,1111122 
SCCF RECON,ioos:station:SCCF:13:1,2015-11-06T17:00:00Z,26.5255,-82.0032,2.654,32.24,1111122 
SCCF RECON,ioos:station:SCCF:13:1,2015-11-06T18:00:00Z,26.5255,-82.0032,2.57,32.11,1111122 
SCCF RECON,ioos:station:SCCF:13:1,2015-11-06T19:00:00Z,26.5255,-82.0032,2.49,29.48,1111122 
SCCF RECON,ioos:station:SCCF:13:1,2015-11-06T20:00:00Z,26.5255,-82.0032,2.43,23.66,1111122 
SCCF RECON,ioos:station:SCCF:13:1,2015-11-06T21:00:00Z,26.5255,-82.0032,2.403,22.06,1111122 
SCCF RECON,ioos:station:SCCF:13:1,2015-11-06T22:00:00Z,26.5255,-82.0032,2.43,20.45,1111122 
SCCF RECON,ioos:station:SCCF:13:1,2015-11-06T23:00:00Z,26.5255,-82.0032,2.52,20.6,1111122 
SCCF RECON,ioos:station:SCCF:13:1,2015-11-07T00:00:00Z,26.5255,-82.0032,2.607,27.07,1111122 
SCCF RECON,ioos:station:SCCF:13:1,2015-11-07T01:00:00Z,26.5255,-82.0032,2.67,28.17,1111122 
SCCF RECON,ioos:station:SCCF:13:1,2015-11-07T02:00:00Z,26.5255,-82.0032,2.74,30.03,1111122 
SCCF RECON,ioos:station:SCCF:13:1,2015-11-07T03:00:00Z,26.5255,-82.0032,2.786,31.61,1111122 
SCCF RECON,ioos:station:SCCF:13:1,2015-11-07T04:00:00Z,26.5255,-82.0032,2.79,32.53,1111122 
SCCF RECON,ioos:station:SCCF:13:1,2015-11-07T05:00:00Z,26.5255,-82.0032,2.73,32.72,1111122 
SCCF RECON,ioos:station:SCCF:13:1,2015-11-07T06:00:00Z,26.5255,-82.0032,2.64,32.83,1111122 
SCCF RECON,ioos:station:SCCF:13:1,2015-11-07T07:00:00Z,26.5255,-82.0032,2.53,30.22,1111122 
SCCF RECON,ioos:station:SCCF:13:1,2015-11-07T08:00:00Z,26.5255,-82.0032,2.44,24.61,1111122 
SCCF RECON,ioos:station:SCCF:13:1,2015-11-07T09:00:00Z,26.5255,-82.0032,2.37,23.68,1111122 
SCCF RECON,ioos:station:SCCF:13:1,2015-11-07T10:00:00Z,26.5255,-82.0032,2.33,22.17,1111122 
SCCF RECON,ioos:station:SCCF:13:1,2015-11-07T11:00:00Z,26.5255,-82.0032,2.403,21.21,1111122 
SCCF RECON,ioos:station:SCCF:13:1,2015-11-07T12:00:00Z,26.5255,-82.0032,2.519,20.95,1111122 
SCCF RECON,ioos:station:SCCF:13:1,2015-11-07T13:00:00Z,26.5255,-82.0032,2.59,24.3,1111122 
SCCF RECON,ioos:station:SCCF:13:1,2015-11-07T14:00:00Z,26.5255,-82.0032,2.65,26.34,1111122 
SCCF RECON,ioos:station:SCCF:13:1,2015-11-07T15:00:00Z,26.5255,-82.0032,2.7,29.54,1111122 
SCCF RECON,ioos:station:SCCF:13:1,2015-11-07T16:00:00Z,26.5255,-82.0032,2.72,31.18,1111122 
SCCF RECON,ioos:station:SCCF:13:1,2015-11-07T17:00:00Z,26.5255,-82.0032,2.688,31.98,1111122 
SCCF RECON,ioos:station:SCCF:13:1,2015-11-07T18:00:00Z,26.5255,-82.0032,2.61,32.06,1111122 
SCCF RECON,ioos:station:SCCF:13:1,2015-11-07T19:00:00Z,26.5255,-82.0032,2.539,31.84,1111122 
SCCF RECON,ioos:station:SCCF:13:1,2015-11-07T20:00:00Z,26.5255,-82.0032,2.458,29.35,1111122 
SCCF RECON,ioos:station:SCCF:13:1,2015-11-07T21:00:00Z,26.5255,-82.0032,2.413,26.48,1111122 
SCCF RECON,ioos:station:SCCF:13:1,2015-11-07T22:00:00Z,26.5255,-82.0032,2.409,24.71,1111122 
SCCF RECON,ioos:station:SCCF:13:1,2015-11-07T23:00:00Z,26.5255,-82.0032,2.449,23.63,1111122 
SCCF RECON,ioos:station:SCCF:13:1,2015-11-08T00:00:00Z,26.5255,-82.0032,2.55,23.29,1111122 
SCCF RECON,ioos:station:SCCF:13:1,2015-11-08T01:00:00Z,26.5255,-82.0032,2.65,27.44,1111122 
SCCF RECON,ioos:station:SCCF:13:1,2015-11-08T02:00:00Z,26.5255,-82.0032,2.7,28.61,1111122 
SCCF RECON,ioos:station:SCCF:13:1,2015-11-08T03:00:00Z,26.5255,-82.0032,2.74,30.28,1111122 
SCCF RECON,ioos:station:SCCF:13:1,2015-11-08T04:00:00Z,26.5255,-82.0032,2.79,31.64,1111122 
SCCF RECON,ioos:station:SCCF:13:1,2015-11-08T05:00:00Z,26.5255,-82.0032,2.78,32.26,1111122 
SCCF RECON,ioos:station:SCCF:13:1,2015-11-08T06:00:00Z,26.5255,-82.0032,2.69,32.33,1111122 
SCCF RECON,ioos:station:SCCF:13:1,2015-11-08T07:00:00Z,26.5255,-82.0032,2.57,32.06,1111122 
SCCF RECON,ioos:station:SCCF:13:1,2015-11-08T08:00:00Z,26.5255,-82.0032,2.463,26.91,1111122 
SCCF RECON,ioos:station:SCCF:13:1,2015-11-08T09:00:00Z,26.5255,-82.0032,2.39,23.94,1111122 
SCCF RECON,ioos:station:SCCF:13:1,2015-11-08T10:00:00Z,26.5255,-82.0032,2.31,23.56,1111122 
SCCF RECON,ioos:station:SCCF:13:1,2015-11-08T11:00:00Z,26.5255,-82.0032,2.302,21.95,1111122 
SCCF RECON,ioos:station:SCCF:13:1,2015-11-08T12:00:00Z,26.5255,-82.0032,2.42,21.14,1111122 
SCCF RECON,ioos:station:SCCF:13:1,2015-11-08T13:00:00Z,26.5255,-82.0032,2.545,20.95,1111122 
SCCF RECON,ioos:station:SCCF:13:1,2015-11-08T14:00:00Z,26.5255,-82.0032,2.629,24.52,1111122 
SCCF RECON,ioos:station:SCCF:13:1,2015-11-08T15:00:00Z,26.5255,-82.0032,2.678,27.83,1111122 
SCCF RECON,ioos:station:SCCF:13:1,2015-11-08T16:00:00Z,26.5255,-82.0032,2.731,30.51,1111122 
SCCF RECON,ioos:station:SCCF:13:1,2015-11-08T17:00:00Z,26.5255,-82.0032,2.768,32.06,1111122 
SCCF RECON,ioos:station:SCCF:13:1,2015-11-08T18:00:00Z,26.5255,-82.0032,2.756,32.27,1111122 
SCCF RECON,ioos:station:SCCF:13:1,2015-11-08T19:00:00Z,26.5255,-82.0032,2.699,32.47,1111122 
SCCF RECON,ioos:station:SCCF:13:1,2015-11-08T20:00:00Z,26.5255,-82.0032,2.62,32.12,1111122 
SCCF RECON,ioos:station:SCCF:13:1,2015-11-08T21:00:00Z,26.5255,-82.0032,2.558,31.51,1111122 
SCCF RECON,ioos:station:SCCF:13:1,2015-11-08T22:00:00Z,26.5255,-82.0032,2.518,30.35,1111122 
SCCF RECON,ioos:station:SCCF:13:1,2015-11-08T23:00:00Z,26.5255,-82.0032,2.5,28.3,1111122 
SCCF RECON,ioos:station:SCCF:13:1,2015-11-09T00:00:00Z,26.5255,-82.0032,2.59,26.68,1111122 
SCCF RECON,ioos:station:SCCF:13:1,2015-11-09T01:00:00Z,26.5255,-82.0032,2.73,28.53,1111122 
SCCF RECON,ioos:station:SCCF:13:1,2015-11-09T02:00:00Z,26.5255,-82.0032,2.8,30.24,1111122 
SCCF RECON,ioos:station:SCCF:13:1,2015-11-09T03:00:00Z,26.5255,-82.0032,2.84,30.84,1111122 
SCCF RECON,ioos:station:SCCF:13:1,2015-11-09T04:00:00Z,26.5255,-82.0032,2.88,32.25,1111122 
SCCF RECON,ioos:station:SCCF:13:1,2015-11-09T05:00:00Z,26.5255,-82.0032,2.89,33.02,1111122 
SCCF RECON,ioos:station:SCCF:13:1,2015-11-09T06:00:00Z,26.5255,-82.0032,2.83,33.12,1111122 
SCCF RECON,ioos:station:SCCF:13:1,2015-11-09T07:00:00Z,26.5255,-82.0032,2.719,33.12,1111122 
SCCF RECON,ioos:station:SCCF:13:1,2015-11-09T08:00:00Z,26.5255,-82.0032,2.6,31.51,1111122 
SCCF RECON,ioos:station:SCCF:13:1,2015-11-09T09:00:00Z,26.5255,-82.0032,2.508,28.39,1111122 
SCCF RECON,ioos:station:SCCF:13:1,2015-11-09T10:00:00Z,26.5255,-82.0032,2.417,27.05,1111122 
SCCF RECON,ioos:station:SCCF:13:1,2015-11-09T11:00:00Z,26.5255,-82.0032,2.341,25.78,1111122 
SCCF RECON,ioos:station:SCCF:13:1,2015-11-09T12:00:00Z,26.5255,-82.0032,2.33,24.5,1111122 
SCCF RECON,ioos:station:SCCF:13:1,2015-11-09T13:00:00Z,26.5255,-82.0032,2.468,23.34,1111122 
SCCF RECON,ioos:station:SCCF:13:1,2015-11-09T14:00:00Z,26.5255,-82.0032,2.6,22.99,1111122 
SCCF RECON,ioos:station:SCCF:13:1,2015-11-09T15:00:00Z,26.5255,-82.0032,2.66,25.74,1111122 
SCCF RECON,ioos:station:SCCF:13:1,2015-11-09T16:00:00Z,26.5255,-82.0032,2.71,27.59,1111122 
SCCF RECON,ioos:station:SCCF:13:1,2015-11-09T17:00:00Z,26.5255,-82.0032,2.756,30.67,1111122 
SCCF RECON,ioos:station:SCCF:13:1,2015-11-09T18:00:00Z,26.5255,-82.0032,2.73,32.38,1111122 
SCCF RECON,ioos:station:SCCF:13:1,2015-11-09T19:00:00Z,26.5255,-82.0032,2.68,32.36,1111122 
SCCF RECON,ioos:station:SCCF:13:1,2015-11-09T20:00:00Z,26.5255,-82.0032,2.61,32.41,1111122 
SCCF RECON,ioos:station:SCCF:13:1,2015-11-09T21:00:00Z,26.5255,-82.0032,2.56,31.12,1111122 
SCCF RECON,ioos:station:SCCF:13:1,2015-11-09T22:00:00Z,26.5255,-82.0032,2.521,29.4,1111122 
SCCF RECON,ioos:station:SCCF:13:1,2015-11-09T23:00:00Z,26.5255,-82.0032,2.494,27.25,1111122 
SCCF RECON,ioos:station:SCCF:13:1,2015-11-10T00:00:00Z,26.5255,-82.0032,2.505,25.7,1111122 
SCCF RECON,ioos:station:SCCF:13:1,2015-11-10T01:00:00Z,26.5255,-82.0032,2.61,24.95,1111122 
SCCF RECON,ioos:station:SCCF:13:1,2015-11-10T02:00:00Z,26.5255,-82.0032,2.727,28.73,1111122 
SCCF RECON,ioos:station:SCCF:13:1,2015-11-10T03:00:00Z,26.5255,-82.0032,2.81,29.21,1111122 
SCCF RECON,ioos:station:SCCF:13:1,2015-11-10T04:00:00Z,26.5255,-82.0032,2.847,31.43,1111122 
SCCF RECON,ioos:station:SCCF:13:1,2015-11-10T05:00:00Z,26.5255,-82.0032,2.88,32.74,1111122 
SCCF RECON,ioos:station:SCCF:13:1,2015-11-10T06:00:00Z,26.5255,-82.0032,2.86,33.24,1111122 
SCCF RECON,ioos:station:SCCF:13:1,2015-11-10T07:00:00Z,26.5255,-82.0032,2.75,33.44,1111122 
SCCF RECON,ioos:station:SCCF:13:1,2015-11-10T08:00:00Z,26.5255,-82.0032,2.62,32.87,1111122 
SCCF RECON,ioos:station:SCCF:13:1,2015-11-10T09:00:00Z,26.5255,-82.0032,2.53,29.77,1111122 
SCCF RECON,ioos:station:SCCF:13:1,2015-11-10T10:00:00Z,26.5255,-82.0032,2.441,27.13,1111122 
SCCF RECON,ioos:station:SCCF:13:1,2015-11-10T11:00:00Z,26.5255,-82.0032,2.37,26.4,1111122 
SCCF RECON,ioos:station:SCCF:13:1,2015-11-10T12:00:00Z,26.5255,-82.0032,2.32,24.53,1111122 
SCCF RECON,ioos:station:SCCF:13:1,2015-11-10T13:00:00Z,26.5255,-82.0032,2.37,23.86,1111122 
SCCF RECON,ioos:station:SCCF:13:1,2015-11-10T14:00:00Z,26.5255,-82.0032,2.52,22.73,1111122 
SCCF RECON,ioos:station:SCCF:13:1,2015-11-10T15:00:00Z,26.5255,-82.0032,2.623,24.07,1111122 
SCCF RECON,ioos:station:SCCF:13:1,2015-11-10T16:00:00Z,26.5255,-82.0032,2.68,26.45,1111122 
SCCF RECON,ioos:station:SCCF:13:1,2015-11-10T17:00:00Z,26.5255,-82.0032,2.74,29.13,1111122 
SCCF RECON,ioos:station:SCCF:13:1,2015-11-10T18:00:00Z,26.5255,-82.0032,2.78,31.22,1111122 
SCCF RECON,ioos:station:SCCF:13:1,2015-11-10T19:00:00Z,26.5255,-82.0032,2.72,32.05,1111122 
SCCF RECON,ioos:station:SCCF:13:1,2015-11-10T20:00:00Z,26.5255,-82.0032,2.618,32.15,1111122 
SCCF RECON,ioos:station:SCCF:13:1,2015-11-10T21:00:00Z,26.5255,-82.0032,2.54,31.46,1111122 
SCCF RECON,ioos:station:SCCF:13:1,2015-11-10T22:00:00Z,26.5255,-82.0032,2.503,29.73,1111122 
SCCF RECON,ioos:station:SCCF:13:1,2015-11-10T23:00:00Z,26.5255,-82.0032,2.46,27.58,1111122 
SCCF RECON,ioos:station:SCCF:13:1,2015-11-11T00:00:00Z,26.5255,-82.0032,2.45,25.73,1111122 
SCCF RECON,ioos:station:SCCF:13:1,2015-11-11T01:00:00Z,26.5255,-82.0032,2.5,24.11,1111122 
SCCF RECON,ioos:station:SCCF:13:1,2015-11-11T02:00:00Z,26.5255,-82.0032,2.63,24.78,1111122 
SCCF RECON,ioos:station:SCCF:13:1,2015-11-11T03:00:00Z,26.5255,-82.0032,2.73,28.43,1111122 
SCCF RECON,ioos:station:SCCF:13:1,2015-11-11T04:00:00Z,26.5255,-82.0032,2.78,29.55,1111122 
SCCF RECON,ioos:station:SCCF:13:1,2015-11-11T05:00:00Z,26.5255,-82.0032,2.81,30.9,1111122 
SCCF RECON,ioos:station:SCCF:13:1,2015-11-11T06:00:00Z,26.5255,-82.0032,2.79,32.04,1111122 
SCCF RECON,ioos:station:SCCF:13:1,2015-11-11T07:00:00Z,26.5255,-82.0032,2.7,32.23,1111122 
SCCF RECON,ioos:station:SCCF:13:1,2015-11-11T08:00:00Z,26.5255,-82.0032,2.57,32.1,1111122 
SCCF RECON,ioos:station:SCCF:13:1,2015-11-11T09:00:00Z,26.5255,-82.0032,2.478,29.6,1111122 
SCCF RECON,ioos:station:SCCF:13:1,2015-11-11T10:00:00Z,26.5255,-82.0032,2.39,25.74,1111122 
SCCF RECON,ioos:station:SCCF:13:1,2015-11-11T11:00:00Z,26.5255,-82.0032,2.31,24.25,1111122 
SCCF RECON,ioos:station:SCCF:13:1,2015-11-11T12:00:00Z,26.5255,-82.0032,2.24,22.1,1111122 
SCCF RECON,ioos:station:SCCF:13:1,2015-11-11T13:00:00Z,26.5255,-82.0032,2.229,21.39,1111122 
SCCF RECON,ioos:station:SCCF:13:1,2015-11-11T14:00:00Z,26.5255,-82.0032,2.35,20.29,1111122 
SCCF RECON,ioos:station:SCCF:13:1,2015-11-11T15:00:00Z,26.5255,-82.0032,2.479,19.7,1111122 
SCCF RECON,ioos:station:SCCF:13:1,2015-11-11T16:00:00Z,26.5255,-82.0032,2.55,22.09,1111122 
SCCF RECON,ioos:station:SCCF:13:1,2015-11-11T17:00:00Z,26.5255,-82.0032,2.617,25.7,1111122 
SCCF RECON,ioos:station:SCCF:13:1,2015-11-11T18:00:00Z,26.5255,-82.0032,2.675,29.24,1111122 